Waarnemingen

Advertentie
Mijn weer
Chambery/Aix-Les-Bains, Frankrijk (7491): temperatuur & dauwpunt: 14.10.2018 15:00:00 - 20.10.2018 15:00:00 (CEST)Chambery/Aix-Les-Bains, Frankrijk (7491): temperatuur 5cm: 14.10.2018 15:00:00 - 20.10.2018 15:00:00 (CEST)Chambery/Aix-Les-Bains, Frankrijk (7491): temperatuur -20cm & temperatuur -100cm: 14.10.2018 15:00:00 - 20.10.2018 15:00:00 (CEST)Chambery/Aix-Les-Bains, Frankrijk (7491): windsnelheid & windstoten: 14.10.2018 15:00:00 - 20.10.2018 15:00:00 (CEST)Chambery/Aix-Les-Bains, Frankrijk (7491): windrichting: 14.10.2018 15:00:00 - 20.10.2018 15:00:00 (CEST)Chambery/Aix-Les-Bains, Frankrijk (7491): luchtdruk: 14.10.2018 15:00:00 - 20.10.2018 15:00:00 (CEST)Chambery/Aix-Les-Bains, Frankrijk (7491): zicht: 14.10.2018 15:00:00 - 20.10.2018 15:00:00 (CEST)Chambery/Aix-Les-Bains, Frankrijk (7491): Zonneschijnduur: 14.10.2018 15:00:00 - 20.10.2018 15:00:00 (CEST)Chambery/Aix-Les-Bains, Frankrijk (7491): neerslag: 14.10.2018 15:00:00 - 20.10.2018 15:00:00 (CEST)
Datum & Tijd tt [°C] td [°C] tt 5cm [°C] tt -20cm [°C] tt -100cm [°C] ff [km/u] ff [kn] fx [km/u] fx [kn] dd ppp [hPa] vv [km] sd [min] rr [mm]
20.10.2018 15:00:00 17,5 11,3 16,5 15,6 17,0 20 11 35 19 N 1025,1 6 55 0,0
20.10.2018 14:00:00 16,7 11,4 16,0 15,6 17,0 21 12 35 19 NNW 1025,9 4,6 3 0,0
20.10.2018 13:00:00 16,2 11,8 15,0 15,6 17,0 22 12 31 17 N 1026,5 3,9 0 0,0
20.10.2018 12:00:00 15,4 11,2 14,2 15,6 17,0 19 10 26 14 N 1026,8 3,7 0 0,0
20.10.2018 11:00:00 14,6 11,2 12,9 15,6 17,1 14 7 30 16 N 1026,9 3,9 0 0,0
20.10.2018 10:00:00 13,4 11,1 10,3 15,7 17,1 18 10 24 13 N 1026,9 3,4 3 0,0
20.10.2018 09:00:00 9,6 9,1 8,9 15,7 17,1 9 5 19 11 Z 1026,5 1,8 0 0,0
20.10.2018 08:00:00 7,8 6,6 8,7 15,7 17,1 5 3 11 6 Z 1025,8 1,8 0 0,0
20.10.2018 07:00:00 8,4 8,1 8,8 15,8 17,1 6 4 10 5 ZZO 1025,1 2,4 0 0,0
20.10.2018 06:00:00 7,8 7,4 8,7 15,9 17,1 8 4 10 6 ZZO 1025,0 1,9 0 0,0
20.10.2018 05:00:00 8,9 8,6 9,0 15,9 17,1 4 2 10 5 ZZO 1024,2 2,1 0 0,0
20.10.2018 04:00:00 9,9 9,0 10,1 15,9 17,1 5 3 16 8 ZZW 1023,9 2,5 0 0,0
20.10.2018 03:00:00 10,7 9,5 10,3 15,9 17,1 5 3 16 8 ZW 1023,5 3,3 0 0,0
20.10.2018 02:00:00 10,7 9,5 10,6 16,0 17,1 6 4 14 8 ZZW 1023,4 3,3 0 0,0
20.10.2018 01:00:00 10,1 9,2 10,6 16,0 17,1 9 5 14 7 Z 1023,3 3,8 0 0,0
20.10.2018 00:00:00 10,8 9,7 11,0 16,0 17,1 5 3 12 6 Z 1023,1 3,6 0 0,0
19.10.2018 23:00:00 11,6 10,7 11,2 16,0 17,1 6 3 12 7 WZW 1022,3 6 0 0,0
19.10.2018 22:00:00 11,3 10,0 11,7 16,0 17,1 7 4 12 7 Z 1022,0 6 0 0,0
19.10.2018 21:00:00 13,0 10,5 12,3 16,0 17,1 3 2 17 9 W 1021,2 9 0 0,0
19.10.2018 20:00:00 13,4 11,5 12,7 15,9 17,1 4 2 8 4 W 1020,6 11 0 0,0
19.10.2018 19:00:00 15,3 12,2 13,8 15,9 17,1 2 1 4 2 NW 1019,5 10 0 0,0
19.10.2018 18:00:00 18,3 12,5 16,9 15,8 17,1 3 1 10 5 WNW 1018,5 11 8 0,0
19.10.2018 17:00:00 21,3 11,9 18,9 15,7 17,1 6 3 10 5 N 1018,3 9 60 0,0
19.10.2018 16:00:00 21,9 11,9 20,1 15,7 17,1 6 3 14 7 NW 1018,3 9 60 0,0
19.10.2018 15:00:00 21,0 11,3 19,3 15,7 17,1 6 4 18 10 NNW 1018,5 8 60 0,0
19.10.2018 14:00:00 19,9 11,4 18,2 15,6 17,1 12 7 23 12 NNW 1018,8 8 60 0,0
19.10.2018 13:00:00 19,2 11,0 16,8 15,6 17,1 13 7 28 15 NNW 1019,6 7 57 0,0
19.10.2018 12:00:00 18,0 11,1 14,8 15,7 17,1 18 10 27 15 N 1020,0 7 60 0,0
19.10.2018 11:00:00 15,3 11,3 13,2 15,7 17,1 5 3 14 7 NNO 1020,5 8 42 0,0
19.10.2018 10:00:00 12,2 9,9 9,7 15,7 17,1 2 1 6 3 ZO 1020,6 6 60 0,0
19.10.2018 09:00:00 8,4 8,3 8,4 15,8 17,1 3 2 5 3 Z 1020,8 2,8 5 0,0
19.10.2018 08:00:00 7,6 7,5 8,2 15,9 17,1 2 1 6 4 ZO 1020,5 1,9 0 0,0
19.10.2018 07:00:00 7,8 7,7 8,3 15,9 17,2 2 1 6 3 ZO 1020,0 4,1 0 0,0
19.10.2018 06:00:00 8,4 8,1 8,6 16,0 17,1 4 2 6 3 Z 1019,8 1,2 0 0,0
19.10.2018 05:00:00 7,9 7,6 8,7 16,0 17,1 5 3 7 4 ZZO 1019,5 0,4 0 0,0
19.10.2018 04:00:00 8,3 7,7 9,1 16,1 17,1 2 1 10 5 WZW 1019,2 5 0 0,0
19.10.2018 03:00:00 8,4 7,8 9,6 16,1 17,1 4 2 9 5 Z 1019,0 3,8 0 0,0
19.10.2018 02:00:00 9,2 8,6 9,8 16,1 17,1 4 2 8 5 Z 1018,8 3,9 0 0,0
19.10.2018 01:00:00 9,7 8,6 10,1 16,2 17,2 4 2 11 6 ZO 1018,5 9 0 0,0
19.10.2018 00:00:00 10,3 9,1 10,2 16,2 17,2 4 2 9 5 ZW 1018,0 8 0 0,0
18.10.2018 23:00:00 10,7 9,0 10,8 16,2 17,2 5 3 9 5 ZZO 1017,5 11 0 0,0
18.10.2018 22:00:00 11,4 9,6 11,2 16,2 17,2 4 2 9 5 Z 1017,1 9 0 0,0
18.10.2018 21:00:00 12,7 9,7 12,5 16,2 17,1 8 4 10 6 Z 1016,6 12 0 0,0
18.10.2018 20:00:00 15,0 11,0 13,6 16,2 17,2 4 2 19 11 ZW 1015,8 14 0 0,0
18.10.2018 19:00:00 17,9 10,5 15,8 16,1 17,2 13 7 25 14 N 1014,8 15 0 0,0
18.10.2018 18:00:00 19,8 11,3 17,0 16,1 17,2 16 9 23 12 N 1014,1 17 20 0,0
18.10.2018 17:00:00 22,4 10,2 19,2 16,0 17,2 13 7 23 12 NNW 1013,9 18 60 0,0
18.10.2018 16:00:00 22,9 10,7 20,0 15,9 17,2 12 6 23 12 NNW 1013,8 15 60 0,0
18.10.2018 15:00:00 22,3 10,4 19,5 15,9 17,2 13 7 23 12 NNW 1014,3 14 60 0,0
18.10.2018 14:00:00 21,2 10,9 18,4 15,9 17,2 14 7 22 12 N 1015,0 10 60 0,0
18.10.2018 13:00:00 20,0 10,4 16,8 15,9 17,2 13 7 23 12 N 1015,7 9 60 0,0
18.10.2018 12:00:00 18,7 10,3 15,4 15,9 17,2 13 7 21 11 N 1016,8 7 60 0,0
18.10.2018 11:00:00 16,8 10,2 12,9 16,0 17,2 3 1 9 5 NO 1017,2 8 60 0,0
18.10.2018 10:00:00 12,3 9,8 9,8 16,0 17,2 3 2 6 3 NO 1017,6 10 60 0,0
18.10.2018 09:00:00 8,3 7,7 8,8 16,0 17,2 5 3 6 3 ZO 1017,9 5 0 0,0
18.10.2018 08:00:00 8,3 7,9 9,0 16,1 17,2 3 2 6 3 ZO 1017,3 5 0 0,0
18.10.2018 07:00:00 9,3 8,5 9,8 16,1 17,2 3 2 5 3 ZW 1017,1 4,8 0 0,0
18.10.2018 06:00:00 9,3 8,4 10,3 16,2 17,2 0 0 5 3 N 1017,0 7 0 0,0
18.10.2018 05:00:00 9,2 8,6 9,6 16,2 17,2 2 1 6 4 Z 1017,0 7 0 0,0
18.10.2018 04:00:00 8,7 7,9 9,3 16,3 17,2 4 2 8 5 O 1017,3 9 0 0,0
18.10.2018 03:00:00 8,9 7,7 9,5 16,3 17,2 3 2 7 4 Z 1017,3 7 0 0,0
18.10.2018 02:00:00 9,1 8,2 9,6 16,4 17,2 2 1 7 4 O 1017,2 9 0 0,0
18.10.2018 01:00:00 9,5 7,9 9,8 16,4 17,2 6 3 8 4 ZZO 1017,4 8 0 0,0
18.10.2018 00:00:00 10,1 8,5 10,0 16,5 17,2 6 3 11 6 Z 1017,1 9 0 0,0
17.10.2018 23:00:00 9,9 8,7 10,5 16,5 17,2 7 4 9 5 Z 1016,9 9 0 0,0
17.10.2018 22:00:00 10,1 8,9 10,8 16,5 17,2 4 2 8 5 ZZW 1016,9 10 0 0,0
17.10.2018 21:00:00 12,3 9,8 11,8 16,5 17,2 5 3 9 5 Z 1016,1 13 0 0,0
17.10.2018 20:00:00 13,8 10,0 12,7 16,4 17,2 2 1 10 5 WNW 1015,6 15 0 0,0
17.10.2018 19:00:00 16,7 10,3 14,4 16,4 17,2 6 3 10 6 WNW 1015,0 1,8 0 0,0
17.10.2018 18:00:00 19,4 10,4 17,3 16,3 17,2 6 3 15 8 WNW 1014,3 14 23 0,0
17.10.2018 17:00:00 22,7 9,8 19,2 16,3 17,2 9 5 18 10 NNW 1013,9 20 60 0,0
17.10.2018 16:00:00 22,0 10,2 19,3 16,2 17,2 7 4 15 8 NNW 1014,2 16 60 0,0
17.10.2018 15:00:00 22,4 9,5 18,7 16,2 17,2 9 5 15 8 N 1014,7 15 60 0,0
17.10.2018 14:00:00 21,3 9,8 17,6 16,2 17,2 8 4 14 7 N 1015,7 16 60 0,0
17.10.2018 13:00:00 20,1 9,3 16,0 16,2 17,2 6 3 13 7 NNO 1017,0 12 60 0,0
17.10.2018 12:00:00 17,8 9,9 15,5 16,2 17,2 4 2 11 6 N 1017,9 13 60 0,0
17.10.2018 11:00:00 15,4 11,0 13,2 16,3 17,2 3 2 9 5 OZO 1018,7 9 60 0,0
17.10.2018 10:00:00 12,1 11,2 10,0 16,3 17,2 4 2 8 5 NNO 1019,2 7 60 0,0
17.10.2018 09:00:00 7,8 7,5 8,7 16,4 17,3 4 2 5 3 Z 1019,8 1,9 0 0,0
17.10.2018 08:00:00 8,2 8,1 8,6 16,5 17,2 4 2 5 3 ZZW 1019,6 0,5 0 0,0
17.10.2018 07:00:00 8,5 8,4 9,0 16,5 17,2 4 2 7 4 ZO 1019,3 0,7 0 0,0
17.10.2018 06:00:00 8,7 8,6 9,5 16,6 17,2 2 1 7 4 O 1019,2 4,5 0 0,0
17.10.2018 05:00:00 8,6 8,2 9,5 16,6 17,2 4 2 6 3 Z 1018,9 2,2 0 0,0
17.10.2018 04:00:00 9,8 9,7 10,0 16,7 17,2 2 1 8 4 O 1019,3 2,5 0 0,0
17.10.2018 03:00:00 10,0 9,5 10,3 16,8 17,2 3 1 4 2 ZZO 1019,7 0,6 0 0,0
17.10.2018 02:00:00 10,8 10,2 11,3 16,8 17,2 4 2 8 4 Z 1019,9 5 0 0,0
17.10.2018 01:00:00 11,5 10,7 11,7 16,8 17,2 3 2 5 3 ZZO 1019,8 7 0 0,0
17.10.2018 00:00:00 13,0 11,4 13,2 16,8 17,2 0 0 7 4 N 1019,6 10 0 0,0
16.10.2018 23:00:00 13,3 11,4 13,6 16,8 17,2 5 3 6 3 ZZO 1019,4 11 0 0,0
16.10.2018 22:00:00 13,6 11,1 13,6 16,8 17,2 2 1 6 3 Z 1019,1 12 0 0,0
16.10.2018 21:00:00 13,7 11,4 13,2 16,8 17,2 2 1 5 3 ZZW 1018,7 11 0 0,0
16.10.2018 20:00:00 13,4 10,6 13,3 16,8 17,2 2 1 7 4 ZZO 1018,4 12 0 0,0
16.10.2018 19:00:00 15,9 12,1 14,7 16,8 17,2 3 1 5 3 O 1017,6 2,0 0 0,0
16.10.2018 18:00:00 19,3 12,3 17,3 16,7 17,2 3 2 8 4 WNW 1017,1 12 21 0,0
16.10.2018 17:00:00 22,2 11,3 18,7 16,6 17,2 5 3 11 6 N 1016,6 18 60 0,0
16.10.2018 16:00:00 22,1 11,2 19,5 16,6 17,2 9 5 16 9 N 1016,6 15 60 0,0
16.10.2018 15:00:00 21,3 11,0 20,0 16,6 17,3 12 6 17 9 N 1017,0 17 60 0,0
16.10.2018 14:00:00 21,7 12,0 19,2 16,5 17,2 9 5 14 8 N 1017,4 15 60 0,0
16.10.2018 13:00:00 20,1 12,8 17,8 16,5 17,3 8 4 16 9 N 1017,9 14 60 0,0
16.10.2018 12:00:00 20,3 11,2 17,1 16,5 17,2 3 2 9 5 NW 1018,0 11 60 0,0
16.10.2018 11:00:00 18,6 11,9 15,4 16,5 17,3 3 2 8 5 ZO 1018,1 9 42 0,0
16.10.2018 10:00:00 14,6 11,6 14,1 16,6 17,3 2 1 4 2 NNO 1018,3 9 0 0,0
16.10.2018 09:00:00 13,1 12,2 13,2 16,6 17,3 0 0 4 2 N 1018,1 9 0 0,0
16.10.2018 08:00:00 12,0 11,1 13,5 16,6 17,3 5 3 6 3 ZZO 1017,8 7 0 0,0
16.10.2018 07:00:00 13,0 11,7 13,7 16,6 17,3 2 1 5 3 ZW 1017,5 10 0 0,0
16.10.2018 06:00:00 13,0 11,7 13,8 16,6 17,3 3 1 4 2 ZO 1017,3 11 0 0,0
16.10.2018 05:00:00 13,4 11,8 13,4 16,6 17,3 5 3 13 7 W 1016,8 11 0 0,0
16.10.2018 04:00:00 13,0 11,7 13,5 16,6 17,3 5 3 7 4 ZZW 1016,6 10 0 0,0
16.10.2018 03:00:00 13,4 11,3 13,8 16,7 17,3 3 2 13 7 ZO 1016,8 12 0 0,0
16.10.2018 02:00:00 13,9 11,4 14,1 16,7 17,3 4 2 6 3 WZW 1016,1 13 0 0,0
16.10.2018 01:00:00 13,6 11,3 14,0 16,7 17,3 3 2 7 4 Z 1015,8 13 0 0,0
16.10.2018 00:00:00 13,9 11,6 14,1 16,7 17,3 4 2 11 6 N 1015,4 13 0 0,0
15.10.2018 23:00:00 14,7 11,3 14,7 16,7 17,3 4 2 9 5 OZO 1014,9 14 0 0,0
15.10.2018 22:00:00 15,2 11,0 14,7 16,7 17,3 5 3 15 8 Z 1014,1 16 0 0,0
15.10.2018 21:00:00 15,6 12,7 15,1 16,6 17,3 5 3 11 6 O 1013,7 14 0 0,0
15.10.2018 20:00:00 16,4 12,7 15,5 16,6 17,3 3 1 9 5 Z 1013,5 13 0 0,0
15.10.2018 19:00:00 17,2 12,9 16,6 16,5 17,3 4 2 9 5 Z 1012,5 2,8 0 0,0
15.10.2018 18:00:00 19,2 13,8 17,8 16,5 17,4 2 1 8 5 O 1011,8 13 0 0,0
15.10.2018 17:00:00 21,1 13,5 18,3 16,4 17,3 4 2 5 3 ONO 1011,1 10 3 0,0
15.10.2018 16:00:00 21,9 11,3 18,4 16,4 17,3 2 1 10 5 NNO 1010,8 14 1 0,0
15.10.2018 15:00:00 23,0 9,0 18,2 16,4 17,3 3 1 11 6 O 1010,6 16 23 0,0
15.10.2018 14:00:00 22,1 7,9 17,8 16,3 17,3 7 4 13 7 NNW 1010,9 7 52 0,0
15.10.2018 13:00:00 21,0 9,6 16,8 16,3 17,3 5 3 10 5 N 1011,5 16 50 0,0
15.10.2018 12:00:00 18,9 10,7 15,6 16,4 17,3 2 1 14 8 ONO 1011,8 5 28 0,0
15.10.2018 11:00:00 15,3 11,7 14,1 16,4 17,3 3 2 7 4 ZO 1012,1 8 5 0,0
15.10.2018 10:00:00 13,3 12,2 10,9 16,5 17,3 3 2 8 4 ZZW 1012,4 9 53 0,0
15.10.2018 09:00:00 9,7 9,7 10,0 16,5 17,3 2 1 10 5 WNW 1012,8 6 4 0,0
15.10.2018 08:00:00 9,6 9,5 10,2 16,5 17,3 5 3 8 5 ZZW 1012,6 1,5 0 0,0
15.10.2018 07:00:00 10,2 9,9 11,3 16,6 17,3 3 2 9 5 ZW 1012,2 7 0 0,0
15.10.2018 06:00:00 11,0 10,7 11,6 16,6 17,3 4 2 5 3 ZW 1012,2 4,4 0 0,0
15.10.2018 05:00:00 11,7 11,1 12,5 16,6 17,3 3 2 10 5 ZO 1012,4 10 0 0,0
15.10.2018 04:00:00 11,4 10,3 12,7 16,7 17,3 3 1 6 4 ZW 1012,5 9 0 0,0
15.10.2018 03:00:00 12,5 11,2 13,0 16,7 17,3 3 2 8 5 O 1012,8 11 0 0,0
15.10.2018 02:00:00 12,5 11,4 13,2 16,7 17,3 2 1 7 4 O 1012,7 14 0 0,0
15.10.2018 01:00:00 13,1 11,8 13,5 16,8 17,4 0 0 8 4 N 1012,7 13 0 0,0
15.10.2018 00:00:00 13,0 11,6 13,7 16,7 17,3 4 2 8 4 Z 1012,9 13 0 0,0
14.10.2018 23:00:00 14,0 11,9 14,1 16,8 17,4 4 2 11 6 NW 1012,8 15 0 0,0
14.10.2018 22:00:00 13,7 11,9 14,0 16,7 17,3 8 4 12 6 ZZO 1012,3 16 0 0,0
14.10.2018 21:00:00 14,2 12,8 14,0 16,7 17,3 3 2 7 4 ZW 1011,8 15 0 0,0
14.10.2018 20:00:00 15,7 13,5 15,2 16,6 17,4 3 2 8 4 WZW 1011,5 16 0 0,0
14.10.2018 19:00:00 17,5 14,6 16,6 16,6 17,4 3 1 10 5 ONO 1010,9 25 25 0,0
14.10.2018 18:00:00 19,5 14,7 18,0 16,6 17,4 5 3 6 3 NNW 1010,7 7 7 0,0
14.10.2018 17:00:00 21,4 13,8 18,5 16,5 17,3 3 2 8 4 NO 1010,8 16 55 0,0
14.10.2018 16:00:00 20,2 14,3 18,0 16,4 17,4 4 2 10 6 N 1011,7 19 12 0,0
14.10.2018 15:00:00 19,5 13,7 17,9 16,4 17,4 5 3 10 6 NNO 1012,0 18 0 0,0

tt = temperatuur
td = dauwpunt
tt 5cm = temperatuur 5cm
tt -20cm = temperatuur -20cm
tt -100cm = temperatuur -100cm
ff = windsnelheid
fx = windstoten
dd = windrichting
ppp = luchtdruk
vv = zicht
sd = Zonneschijnduur
rr = neerslag

Weerstations in de omgeving